TimeEDT,TemperatureF,Dew PointF,Humidity,Sea Level PressureIn,VisibilityMPH,Wind Direction,Wind SpeedMPH,Gust SpeedMPH,PrecipitationIn,Events,Conditions,WindDirDegrees,DateUTC
12:53 AM,33.1,28.9,85,30.09,10.0,Calm,Calm,-,N/A,,Clear,0,2013-04-14 04:53:00
1:53 AM,32.0,28.9,88,30.09,10.0,Calm,Calm,-,N/A,,Clear,0,2013-04-14 05:53:00
2:53 AM,30.9,28.0,89,30.08,9.0,ESE,3.5,-,N/A,,Clear,110,2013-04-14 06:53:00
3:53 AM,30.9,28.0,89,30.07,9.0,Calm,Calm,-,N/A,,Clear,0,2013-04-14 07:53:00
4:53 AM,30.0,28.0,92,30.10,9.0,Calm,Calm,-,N/A,,Clear,0,2013-04-14 08:53:00
5:53 AM,30.0,27.0,88,30.12,9.0,Calm,Calm,-,N/A,,Clear,0,2013-04-14 09:53:00
6:53 AM,30.9,28.9,92,30.12,9.0,Calm,Calm,-,N/A,,Overcast,0,2013-04-14 10:53:00
8:53 AM,37.9,30.9,76,30.14,10.0,ESE,5.8,-,N/A,,Partly Cloudy,120,2013-04-14 12:53:00
9:53 AM,43.0,33.1,68,30.17,10.0,ESE,5.8,-,N/A,,Overcast,120,2013-04-14 13:53:00
10:53 AM,46.9,32.0,56,30.15,10.0,Variable,3.5,-,N/A,,Partly Cloudy,0,2013-04-14 14:53:00
11:53 AM,51.1,32.0,48,30.12,10.0,ESE,8.1,-,N/A,,Clear,120,2013-04-14 15:53:00
12:53 PM,54.0,33.1,45,30.11,10.0,South,6.9,-,N/A,,Clear,180,2013-04-14 16:53:00
1:53 PM,55.9,32.0,40,30.09,10.0,Calm,Calm,-,N/A,,Scattered Clouds,0,2013-04-14 17:53:00
2:53 PM,60.1,32.0,35,30.07,10.0,Variable,5.8,-,N/A,,Clear,0,2013-04-14 18:53:00
3:53 PM,61.0,34.0,36,30.04,10.0,SE,5.8,-,N/A,,Clear,130,2013-04-14 19:53:00
4:53 PM,62.1,34.0,35,30.03,10.0,SSE,4.6,-,N/A,,Clear,160,2013-04-14 20:53:00
5:53 PM,63.0,36.0,37,30.02,10.0,East,6.9,-,N/A,,Clear,100,2013-04-14 21:53:00
6:53 PM,62.1,36.0,38,30.02,10.0,ESE,8.1,-,N/A,,Clear,110,2013-04-14 22:53:00
7:53 PM,60.1,37.0,42,30.02,10.0,East,3.5,-,N/A,,Clear,100,2013-04-14 23:53:00
8:53 PM,57.9,37.0,46,30.01,10.0,ENE,4.6,-,N/A,,Clear,70,2013-04-15 00:53:00
9:53 PM,57.0,37.0,47,30.01,10.0,SE,4.6,-,N/A,,Clear,140,2013-04-15 01:53:00
10:53 PM,55.9,37.0,49,30.00,10.0,ESE,6.9,-,N/A,,Clear,110,2013-04-15 02:53:00
11:53 PM,55.9,37.0,49,29.99,10.0,ESE,8.1,-,N/A,,Partly Cloudy,120,2013-04-15 03:53:00